sat.trackr.live / text

‹ back to catalog

STARLINK-3130

NORAD 49437 · 2021-104AF

PAYLOAD ACTIVE UNKNOWN

§ Identity

Operator
Country
US
Launch date
2021-11-13
Launch site
AFETR
Launch vehicle
Mass (kg)
RCS (m²)

Purposes: comms

External: N2YO · Heavens-Above · Gunter

§ Orbital elements

Epoch: 2026-05-24T22:30:17.733600Z

Period
95.44 min
Inclination
53.2136°
Eccentricity
0.0001227
Mean motion
15.08831699 rev/d
Perigee alt
538.9 km
Apogee alt
540.6 km
Semi-major
6,917.9 km
B*
4.2823e-5
RAAN
226.8306°
Arg perigee
95.6298°
Mean anomaly
264.4834°
Rev number
25,042

§ Raw data

STARLINK-31301 49437U 21104AF  26144.93770525  .00000394  00000+0  42823-4 0  99982 49437  53.2136 226.8306 0001227  95.6298 264.4834 15.08831699250421

JSON: /api/v1/satellites/49437 · /tle

For live sub-satellite position, see the globe view (requires WebGL).

§ Visibility from observer

Set your observer location to see the next 7 days of passes ≥ 10°. The values pass through the URL so the page stays shareable.

No JS? Fill the form by hand. The geolocation button needs JavaScript.